• En España
  • Lista de países
  • Para 7 días
  • Temperatura del agua
  • Mapa Satelital
  • El tiempo en el mapa
  • Informadores
  • user-avatar
    Iniciar sesión

    Tiempo cada hora Ondjiwa

    Hoy, 26 Mayo, Sábado

    Tiempo Temperatura Precipitaciones Viento Presión Humedad
    00:00 +17°C° 0 mm 2 mps 668 mmHg 52%
    01:00 +17°C° 0 mm 2 mps 667 mmHg 54%
    02:00 +16°C° 0 mm 2 mps 667 mmHg 56%
    03:00 +16°C° 0 mm 2 mps 667 mmHg 58%
    04:00 +15°C° 0 mm 2 mps 667 mmHg 60%
    05:00 +16°C° 0 mm 2 mps 668 mmHg 61%
    06:00 +16°C° 0 mm 2 mps 668 mmHg 62%
    07:00 +16°C° 0 mm 2 mps 669 mmHg 60%
    08:00 +20°C° 0 mm 3 mps 669 mmHg 50%
    09:00 +23°C° 0 mm 4 mps 670 mmHg 40%
    10:00 +27°C° 0 mm 4 mps 671 mmHg 30%
    11:00 +28°C° 0 mm 4 mps 670 mmHg 27%
    12:00 +29°C° 0 mm 4 mps 670 mmHg 24%
    13:00 +32°C° 0 mm 4 mps 670 mmHg 21%
    14:00 +30°C° 0 mm 4 mps 669 mmHg 21%
    15:00 +30°C° 0 mm 4 mps 669 mmHg 21%
    16:00 +30°C° 0 mm 3 mps 669 mmHg 22%
    17:00 +28°C° 0 mm 3 mps 669 mmHg 26%
    18:00 +25°C° 0 mm 2 mps 669 mmHg 30%
    19:00 +23°C° 0 mm 2 mps 668 mmHg 33%
    20:00 +21°C° 0 mm 2 mps 669 mmHg 35%
    21:00 +20°C° 0 mm 2 mps 669 mmHg 37%
    22:00 +20°C° 0 mm 2 mps 669 mmHg 39%
    23:00 +19°C° 0 mm 2 mps 669 mmHg 42%

    Mañana, 27 Mayo, Domingo

    Tiempo Temperatura Precipitaciones Viento Presión Humedad
    00:00 +18°C° 0 mm 2 mps 669 mmHg 45%
    01:00 +17°C° 0 mm 2 mps 669 mmHg 48%
    02:00 +17°C° 0 mm 2 mps 669 mmHg 51%
    03:00 +16°C° 0 mm 2 mps 669 mmHg 53%
    04:00 +16°C° 0 mm 2 mps 669 mmHg 56%
    05:00 +16°C° 0 mm 2 mps 669 mmHg 57%
    06:00 +16°C° 0 mm 2 mps 669 mmHg 58%
    07:00 +16°C° 0 mm 2 mps 670 mmHg 59%
    08:00 +19°C° 0 mm 3 mps 670 mmHg 49%
    09:00 +23°C° 0 mm 4 mps 671 mmHg 40%
    10:00 +27°C° 0 mm 5 mps 672 mmHg 31%
    11:00 +28°C° 0 mm 5 mps 672 mmHg 27%
    12:00 +30°C° 0 mm 5 mps 671 mmHg 24%
    13:00 +32°C° 0 mm 4 mps 671 mmHg 20%
    14:00 +32°C° 0 mm 4 mps 671 mmHg 20%
    15:00 +30°C° 0 mm 3 mps 670 mmHg 20%
    16:00 +30°C° 0 mm 3 mps 670 mmHg 19%
    17:00 +28°C° 0 mm 3 mps 670 mmHg 23%
    18:00 +25°C° 0 mm 2 mps 669 mmHg 27%
    19:00 +23°C° 0 mm 2 mps 669 mmHg 30%
    20:00 +21°C° 0 mm 2 mps 670 mmHg 32%
    21:00 +20°C° 0 mm 2 mps 670 mmHg 33%
    22:00 +19°C° 0 mm 2 mps 670 mmHg 35%
    23:00 +19°C° 0 mm 2 mps 670 mmHg 38%

    Pasado mañana, 28 Mayo, Lunes

    Tiempo Temperatura Precipitaciones Viento Presión Humedad
    00:00 +18°C° 0 mm 2 mps 670 mmHg 40%
    01:00 +17°C° 0 mm 2 mps 670 mmHg 43%
    02:00 +17°C° 0 mm 2 mps 670 mmHg 46%
    03:00 +17°C° 0 mm 2 mps 669 mmHg 49%
    04:00 +16°C° 0 mm 2 mps 669 mmHg 52%
    05:00 +16°C° 0 mm 2 mps 670 mmHg 53%
    06:00 +16°C° 0 mm 2 mps 670 mmHg 54%
    07:00 +16°C° 0 mm 2 mps 670 mmHg 56%
    08:00 +20°C° 0 mm 2 mps 671 mmHg 47%
    09:00 +24°C° 0 mm 3 mps 672 mmHg 39%
    10:00 +28°C° 0 mm 3 mps 673 mmHg 31%
    11:00 +29°C° 0 mm 3 mps 673 mmHg 27%
    12:00 +30°C° 0 mm 3 mps 672 mmHg 24%
    13:00 +31°C° 0 mm 2 mps 672 mmHg 21%
    14:00 +31°C° 0 mm 2 mps 671 mmHg 20%
    15:00 +31°C° 0 mm 2 mps 671 mmHg 20%
    16:00 +31°C° 0 mm 1 mps 670 mmHg 20%
    17:00 +28°C° 0 mm 1 mps 670 mmHg 24%
    18:00 +26°C° 0 mm 1 mps 670 mmHg 27%
    19:00 +23°C° 0 mm 1 mps 669 mmHg 31%
    20:00 +22°C° 0 mm 1 mps 669 mmHg 33%
    21:00 +22°C° 0 mm 1 mps 670 mmHg 34%
    22:00 +21°C° 0 mm 1 mps 670 mmHg 36%
    23:00 +20°C° 0 mm 1 mps 670 mmHg 38%

    29 Mayo, Martes

    Tiempo Temperatura Precipitaciones Viento Presión Humedad
    00:00 +20°C° 0 mm 1 mps 669 mmHg 39%
    01:00 +19°C° 0 mm 1 mps 669 mmHg 41%
    02:00 +18°C° 0 mm 1 mps 669 mmHg 42%
    03:00 +18°C° 0 mm 1 mps 669 mmHg 44%
    04:00 +18°C° 0 mm 1 mps 669 mmHg 46%
    05:00 +16°C° 0 mm 1 mps 669 mmHg 47%
    06:00 +16°C° 0 mm 2 mps 669 mmHg 49%
    07:00 +16°C° 0 mm 2 mps 670 mmHg 51%
    08:00 +19°C° 0 mm 2 mps 670 mmHg 44%
    09:00 +24°C° 0 mm 2 mps 671 mmHg 38%
    10:00 +27°C° 0 mm 3 mps 672 mmHg 31%
    11:00 +28°C° 0 mm 2 mps 671 mmHg 28%
    12:00 +30°C° 0 mm 2 mps 671 mmHg 24%
    13:00 +31°C° 0 mm 2 mps 670 mmHg 21%
    14:00 +31°C° 0 mm 1 mps 670 mmHg 20%
    15:00 +31°C° 0 mm 1 mps 669 mmHg 20%
    16:00 +31°C° 0 mm 1 mps 669 mmHg 20%
    17:00 +29°C° 0 mm 1 mps 669 mmHg 24%
    18:00 +26°C° 0 mm 1 mps 668 mmHg 27%
    19:00 +24°C° 0 mm 1 mps 668 mmHg 31%
    20:00 +23°C° 0 mm 1 mps 668 mmHg 33%
    21:00 +22°C° 0 mm 1 mps 668 mmHg 34%
    22:00 +21°C° 0 mm 1 mps 668 mmHg 36%
    23:00 +21°C° 0 mm 1 mps 668 mmHg 37%

    30 Mayo, Miércoles

    Tiempo Temperatura Precipitaciones Viento Presión Humedad
    00:00 +20°C° 0 mm 1 mps 668 mmHg 39%
    01:00 +20°C° 0 mm 1 mps 667 mmHg 40%
    02:00 +19°C° 0 mm 1 mps 667 mmHg 41%
    03:00 +19°C° 0 mm 1 mps 667 mmHg 42%
    04:00 +18°C° 0 mm 1 mps 667 mmHg 44%
    05:00 +18°C° 0 mm 1 mps 667 mmHg 45%
    06:00 +18°C° 0 mm 1 mps 668 mmHg 47%
    07:00 +18°C° 0 mm 1 mps 668 mmHg 48%
    08:00 +21°C° 0 mm 1 mps 669 mmHg 41%
    09:00 +24°C° 0 mm 1 mps 670 mmHg 34%
    10:00 +27°C° 0 mm 1 mps 671 mmHg 28%
    11:00 +29°C° 0 mm 1 mps 670 mmHg 25%
    12:00 +31°C° 0 mm 1 mps 670 mmHg 23%
    13:00 +32°C° 0 mm 1 mps 669 mmHg 20%
    14:00 +32°C° 0 mm 1 mps 669 mmHg 20%
    15:00 +32°C° 0 mm 1 mps 668 mmHg 20%
    16:00 +31°C° 0 mm 1 mps 668 mmHg 20%
    17:00 +29°C° 0 mm 1 mps 668 mmHg 23%
    18:00 +26°C° 0 mm 1 mps 668 mmHg 27%
    19:00 +24°C° 0 mm 2 mps 667 mmHg 30%
    20:00 +23°C° 0 mm 2 mps 668 mmHg 31%
    21:00 +23°C° 0 mm 2 mps 668 mmHg 32%
    22:00 +21°C° 0 mm 2 mps 668 mmHg 33%
    23:00 +21°C° 0 mm 2 mps 668 mmHg 34%

    31 Mayo, Jueves

    Tiempo Temperatura Precipitaciones Viento Presión Humedad
    00:00 +20°C° 0 mm 2 mps 668 mmHg 35%
    01:00 +20°C° 0 mm 2 mps 668 mmHg 36%
    02:00 +20°C° 0 mm 1 mps 667 mmHg 38%
    03:00 +19°C° 0 mm 1 mps 667 mmHg 41%
    04:00 +18°C° 0 mm 1 mps 667 mmHg 43%
    05:00 +18°C° 0 mm 1 mps 668 mmHg 44%
    06:00 +18°C° 0 mm 1 mps 668 mmHg 44%
    07:00 +18°C° 0 mm 1 mps 669 mmHg 45%
    08:00 +21°C° 0 mm 1 mps 669 mmHg 38%
    09:00 +24°C° 0 mm 2 mps 670 mmHg 31%
    10:00 +27°C° 0 mm 2 mps 671 mmHg 24%
    11:00 +29°C° 0 mm 2 mps 670 mmHg 22%
    12:00 +31°C° 0 mm 2 mps 670 mmHg 21%
    13:00 +32°C° 0 mm 2 mps 670 mmHg 19%
    14:00 +32°C° 0 mm 1 mps 669 mmHg 18%
    15:00 +32°C° 0 mm 1 mps 669 mmHg 18%
    16:00 +32°C° 0 mm 1 mps 668 mmHg 18%
    17:00 +29°C° 0 mm 1 mps 668 mmHg 21%
    18:00 +27°C° 0 mm 1 mps 668 mmHg 25%
    19:00 +24°C° 0 mm 2 mps 668 mmHg 28%
    20:00 +23°C° 0 mm 2 mps 669 mmHg 30%
    21:00 +23°C° 0 mm 2 mps 669 mmHg 31%
    22:00 +21°C° 0 mm 2 mps 669 mmHg 33%
    23:00 +20°C° 0 mm 2 mps 669 mmHg 33%
    Mostrar más